Location: Gleizolles
(44.4833°N, 6.7667°E)
Time: 13:12:26
(UTC+00:00)

A-11 Canister half - Pass Details

Date: 20 June 2024
Orbit: 1515 x 1684 km, 47.2° (Epoch: 24 July)

Event Time Altitude Azimuth Distance (km) Brightness Sun altitude
Rises 21:53:16 0° 285° (WNW) 4,895 12.2 -18.2°
Reaches altitude 10° 21:56:28 10° 286° (WNW) 3,888 11.6 -18.5°
Maximum altitude 22:06:26 86° 16° (NNE) 1,610 9.1 -19.1°
Drops below altitude 10° 22:16:01 10° 107° (ESE) 3,746 10.7 -19.7°
Enters shadow 22:18:16 - 107° (ESE) 4,468 11.1 -19.9°
